Location: *
(55.6049°S, 142.1985°W)
Time: 23:14:40
(UTC+00:00)

Geosat - Pass Details

Date: 12 May 2021
Orbit: 763 x 766 km, 108.0° (Epoch: 23 June)

Event Time Altitude Azimuth Distance (km) Brightness Sun altitude
Rises 15:44:26 0° 32° (NNE) 3,241 8.0 -12.4°
Reaches altitude 10° 15:46:42 10° 31° (NNE) 2,321 7.2 -12.1°
Maximum altitude 15:51:47 80° 303° (WNW) 797 4.0 -11.4°
Drops below altitude 10° 15:56:55 10° 215° (SW) 2,343 6.0 -10.7°
Enters shadow 15:57:38 - 215° (SW) 2,628 6.3 -10.6°
